This is the latest recevied weather packets stored in our database for station/object WW5JC. If no packets are shown the sender has not sent any weather packets the latest 10 day(s).
| Time | Temp. | Humidity | Pressure | Rain* | Wind** | Luminosity | Snow |
|---|---|---|---|---|---|---|---|
| 1788470421 | 33.33° C | 58% | 1014.3 hPa | 0 mm | - | 222 W/m² | - |
| 1788470115 | 32.78° C | 60% | 1014.4 hPa | 0 mm | - | 523 W/m² | - |
| 1788469813 | 32.78° C | 60% | 1014.7 hPa | 0 mm | - | 144 W/m² | - |
| 1788469507 | 32.22° C | 61% | 1014.6 hPa | 0 mm | - | 512 W/m² | - |
| 1788469203 | 32.78° C | 59% | 1014.5 hPa | 0 mm | - | 470 W/m² | - |
| 1788468896 | 32.22° C | 61% | 1015 hPa | 0 mm | - | 503 W/m² | - |
| 1788468591 | 31.67° C | 61% | 1014.9 hPa | 0 mm | - | 263 W/m² | - |
| 1788468287 | 32.78° C | 59% | 1015.1 hPa | 0 mm | - | 523 W/m² | - |
| 1788467982 | 32.22° C | 61% | 1015.1 hPa | 0 mm | - | 527 W/m² | - |
| 1788467678 | 32.22° C | 61% | 1015 hPa | 0 mm | - | 542 W/m² | - |
| 1788467377 | 32.78° C | 59% | 1015.1 hPa | 0 mm | - | 540 W/m² | - |
| 1788467074 | 31.67° C | 63% | 1015.4 hPa | 0 mm | - | 552 W/m² | - |
| 1788466773 | 31.11° C | 63% | 1015.2 hPa | 0 mm | - | 567 W/m² | - |
| 1788466468 | 31.67° C | 63% | 1015.3 hPa | 0 mm | - | 576 W/m² | - |
| 1788466167 | 31.67° C | 64% | 1015.6 hPa | 0 mm | - | 590 W/m² | - |
| 1788465862 | 31.11° C | 65% | 1015.6 hPa | 0 mm | - | 601 W/m² | - |
| 1788465557 | 31.11° C | 65% | 1015.4 hPa | 0 mm | - | 620 W/m² | - |
| 1788465254 | 31.67° C | 63% | 1015.7 hPa | 0 mm | - | 607 W/m² | - |
| 1788464948 | 31.11° C | 65% | 1015.7 hPa | 0 mm | - | 613 W/m² | - |
| 1788464643 | 31.67° C | 64% | 1015.8 hPa | 0 mm | - | 643 W/m² | - |
| 1788464338 | 31.67° C | 64% | 1015.9 hPa | 0 mm | - | 642 W/m² | - |
| 1788464035 | 31.11° C | 64% | 1015.9 hPa | 0 mm | - | 644 W/m² | - |
| 1788463730 | 30.56° C | 66% | 1015.9 hPa | 0 mm | - | 188 W/m² | - |
| 1788463426 | 31.67° C | 63% | 1015.9 hPa | 0 mm | - | 652 W/m² | - |
| 1788463122 | 32.22° C | 62% | 1016.1 hPa | 0 mm | - | 669 W/m² | - |
* Rain latest hour (hover to see other rain measurements)
** Current wind speed in m/s (hover to see current wind gust speed)